Regional Weather Roundup
Issued by NWS

Home | Current Version | Previous Version | Graphics & Text | Print | Product List | Glossary On
Versions: 1 2 3 4 5 6 7 8 9 10 11 12 13 14 15 16 17 18 19 20 21 22 23 24 25 26 27 28 29 30 31 32 33 34 35 36 37 38 39 40 41 42 43 44 45 46 47 48 49 50
000
ASUS43 KOAX 311110
RWRNE

WEATHER ROUNDUP FOR NEBRASKA
NATIONAL WEATHER SERVICE OMAHA NE
600 AM CDT WED AUG 31 2016

NOTES: SATELLITE DATA IS BEING USED TO AUGMENT CLOUD COVER ABOVE
       12000 FEET.
       "FAIR" INDICATES FEW OR NO CLOUDS BELOW 12,000 FEET WITH NO
       SIGNIFICANT WEATHER AND/OR OBSTRUCTIONS TO VISIBILITY.

  * THESE STATIONS DO NOT REPORT WEATHER SUCH AS RAIN...SNOW OR FOG.

NEZ001>004-019>022-054>056-311200-
NEBRASKA PANHANDLE

CITY           SKY/WX    TMP DP  RH WIND       PRES   REMARKS
SCOTTSBLUFF    FOG       58  57  97 E8        30.25S VSB 1/4
ALLIANCE       FOG       61  60  97 S8        30.25S VSB 1/4
CHADRON        CLEAR     55  53  93 W3        30.21S
KIMBALL        FOG       58  58 100 CALM      30.30S VSB 1/4
SIDNEY         FOG       62  62 100 E6        30.28S VSB 1
$$

NEZ057>060-069>072-079>082-311200-
SOUTHWEST NEBRASKA

CITY           SKY/WX    TMP DP  RH WIND       PRES   REMARKS
NORTH PLATTE   FOG       64  62  93 SE5       30.24R VSB 1/4
IMPERIAL       LGT RAIN  65  64  97 S6        30.23F FOG
LEXINGTON      FOG       65  64  96 NE3       30.22S VSB 1/4
MCCOOK         CLOUDY    66  64  93 NE3       30.22R
OGALLALA       CLOUDY    66  65  96 E6        30.24F FOG
$$

NEZ005>010-023>029-035>040-094-311200-
NORTH CENTRAL NEBRASKA

CITY           SKY/WX    TMP DP  RH WIND       PRES   REMARKS
VALENTINE      CLEAR     60  58  92 S3        30.22S
AINSWORTH      CLEAR     58  58 100 CALM      30.23S
BROKEN BOW     FOG       62  62 100 N6        30.23S VSB 1/4
O`NEILL        FOG       60  59  96 CALM      30.23R VSB 1/2
ORD            FOG       63  62  97 CALM      30.20F VSB 1/4
THEDFORD       FOG       55  55  98 CALM      30.25S VSB 1/4
$$

NEZ041-046>049-061>064-073>077-083>087-311200-
SOUTH CENTRAL NEBRASKA

CITY           SKY/WX    TMP DP  RH WIND       PRES   REMARKS
GRAND ISLAND   FOG       66  66 100 N3        30.21S VSB 3/4
AURORA         DRIZZLE   66  66 100 NE3       30.20S
HASTINGS       CLOUDY    68  66  93 NE5       30.20F FOG
HEBRON         CLOUDY    69  68  97 CALM      30.17S FOG
HOLDREGE       CLOUDY    66  65  97 NE5       30.21S FOG
KEARNEY *      CLOUDY    66  64  94 N3        30.20S
YORK           CLOUDY    66  66 100 CALM      30.20R FOG
$$

NEZ011>018-030>034-042>045-311200-
NORTHEAST NEBRASKA

CITY           SKY/WX    TMP DP  RH WIND       PRES   REMARKS
NORFOLK        FOG       63  62  97 SE3       30.20S VSB 1/4
ALBION         CLOUDY    62  60  93 CALM      30.21R
BLAIR          CLOUDY    68  66  94 N7        30.18S
FREMONT        CLOUDY    68  67  96 NE5       30.19S
TEKAMAH        CLOUDY    63  61  93 N5        30.18S
WAYNE          FOG       66  66  99 CALM      30.21S VSB 1/4
$$

NEZ050>053-065>068-078-088>093-311200-
SOUTHEAST NEBRASKA

CITY           SKY/WX    TMP DP  RH WIND       PRES   REMARKS
LINCOLN        CLOUDY    70  68  93 N6        30.17S
OMAHA EPPLEY   CLOUDY    68  64  87 NW6       30.17S
BEATRICE       CLOUDY    69  68  97 N3        30.16R
FALLS CITY     LGT RAIN  71  70  96 NE5       30.12S
NEBRASKA CITY  CLOUDY    70  70 100 N6        30.16R
PLATTSMOUTH    CLOUDY    69  67  92 NE3       30.17R
$$

NEZ044-045-051>053-067-311200-
OMAHA AREA

CITY           SKY/WX    TMP DP  RH WIND       PRES   REMARKS
OMAHA EPPLEY   CLOUDY    68  64  87 NW6       30.17S
BLAIR          CLOUDY    68  66  94 N7        30.18S
FREMONT        CLOUDY    68  67  96 NE5       30.19S
MILLARD        CLOUDY   N/A N/A N/A CALM      30.17R
OFFUTT AFB     MOCLDY    69  67  90 N5        30.16R
PLATTSMOUTH    CLOUDY    69  67  92 NE3       30.17R
WAHOO          CLOUDY    69  67  94 N5        30.19R
$$




USA.gov is the U.S. government's official web portal to all federal, state and local government web resources and services.